| time (UTC) | temp F | wind direction | speed MPH | gust MPH | rain 1hr in | rain 24hr in | rain mn in | humidity % | barometer mb |
| 20260505183604 | 40 | 273 | 2.0 | 9.0 | 0.00 | 0.03 | 0.03 | 55 | 998.2 |
| 20260505182704 | 41 | 266 | 1.0 | 6.0 | 0.00 | 0.03 | 0.03 | 52 | 998.1 |
| 20260505181804 | 42 | 277 | 4.0 | 9.0 | 0.00 | 0.03 | 0.03 | 51 | 998.1 |
| 20260505180904 | 42 | 276 | 5.0 | 13.0 | 0.00 | 0.03 | 0.03 | 50 | 998.1 |
| 20260505180004 | 43 | 279 | 7.0 | 16.0 | 0.00 | 0.03 | 0.03 | 48 | 998.0 |
| 20260505175404 | 43 | 277 | 7.0 | 13.0 | 0.00 | 0.03 | 0.03 | 49 | 997.8 |
| 20260505174504 | 44 | 280 | 7.0 | 18.0 | 0.00 | 0.03 | 0.03 | 47 | 997.8 |
| 20260505173604 | 45 | 278 | 7.0 | 14.0 | 0.00 | 0.03 | 0.03 | 47 | 997.7 |
| 20260505172704 | 45 | 276 | 8.0 | 18.0 | 0.00 | 0.03 | 0.03 | 46 | 997.7 |
| 20260505171804 | 46 | 276 | 7.0 | 15.0 | 0.00 | 0.03 | 0.03 | 46 | 997.6 |
| 20260505170904 | 46 | 279 | 8.0 | 18.0 | 0.00 | 0.03 | 0.03 | 46 | 997.6 |
| 20260505170004 | 46 | 283 | 8.0 | 16.0 | 0.00 | 0.03 | 0.03 | 46 | 997.6 |
| 20260505165404 | 46 | 282 | 8.0 | 16.0 | 0.00 | 0.03 | 0.03 | 45 | 997.5 |
| 20260505164504 | 46 | 279 | 10.0 | 20.0 | 0.00 | 0.03 | 0.03 | 45 | 997.5 |
| 20260505163604 | 46 | 290 | 11.0 | 20.0 | 0.00 | 0.03 | 0.03 | 45 | 997.5 |
| 20260505162704 | 45 | 292 | 11.0 | 20.0 | 0.00 | 0.03 | 0.03 | 45 | 997.4 |
| 20260505161804 | 45 | 288 | 10.0 | 18.0 | 0.00 | 0.03 | 0.03 | 47 | 997.4 |
| 20260505160904 | 45 | 287 | 12.0 | 24.0 | 0.00 | 0.03 | 0.03 | 47 | 997.3 |
| 20260505152704 | 47 | 280 | 10.0 | 20.0 | 0.00 | 0.03 | 0.03 | 44 | 996.9 |
| 20260505151804 | 47 | 286 | 9.0 | 19.0 | 0.00 | 0.03 | 0.03 | 45 | 996.8 |
| 20260505150904 | 46 | 288 | 12.0 | 25.0 | 0.00 | 0.03 | 0.03 | 47 | 996.7 |
| 20260505124525 | 43 | 277 | 10.0 | 20.0 | 0.00 | 0.03 | 0.03 | 58 | 995.9 |
| 20260505123604 | 43 | 277 | 11.0 | 23.0 | 0.00 | 0.03 | 0.03 | 59 | 995.7 |
| 20260505122703 | 43 | 276 | 7.0 | 17.0 | 0.00 | 0.03 | 0.03 | 60 | 995.7 |
| 20260505121803 | 42 | 286 | 9.0 | 18.0 | 0.00 | 0.03 | 0.03 | 64 | 995.7 |
| 20260505120904 | 42 | 285 | 11.0 | 19.0 | 0.00 | 0.03 | 0.03 | 65 | 995.7 |
| 20260505120004 | 41 | 291 | 11.0 | 18.0 | 0.00 | 0.03 | 0.03 | 66 | 995.7 |
| 20260505115404 | 41 | 291 | 11.0 | 21.0 | 0.00 | 0.03 | 0.03 | 66 | 995.7 |
| 20260505114525 | 41 | 280 | 10.0 | 22.0 | 0.00 | 0.03 | 0.03 | 66 | 995.6 |
| 20260505113603 | 41 | 279 | 10.0 | 25.0 | 0.00 | 0.03 | 0.03 | 65 | 995.5 |
| 20260505112704 | 41 | 275 | 10.0 | 20.0 | 0.00 | 0.03 | 0.03 | 66 | 995.3 |
| 20260505111803 | 41 | 283 | 9.0 | 17.0 | 0.00 | 0.03 | 0.03 | 68 | 995.3 |
| 20260505110903 | 41 | 291 | 10.0 | 20.0 | 0.00 | 0.03 | 0.03 | 68 | 995.2 |
| 20260505101803 | 40 | 275 | 7.0 | 17.0 | 0.00 | 0.03 | 0.03 | 71 | 994.6 |
| 20260505100904 | 40 | 281 | 13.0 | 27.0 | 0.00 | 0.03 | 0.03 | 71 | 994.5 |
| 20260505100004 | 40 | 280 | 10.0 | 22.0 | 0.00 | 0.03 | 0.03 | 71 | 994.4 |
| 20260505095403 | 40 | 278 | 9.0 | 19.0 | 0.00 | 0.03 | 0.03 | 73 | 994.4 |
| 20260505094504 | 40 | 274 | 10.0 | 26.0 | 0.00 | 0.03 | 0.03 | 72 | 994.2 |
| 20260505093603 | 40 | 271 | 8.0 | 18.0 | 0.00 | 0.03 | 0.03 | 73 | 994.0 |
| 20260505092703 | 40 | 277 | 10.0 | 18.0 | 0.00 | 0.03 | 0.03 | 72 | 994.0 |
| 20260505091804 | 40 | 270 | 8.0 | 17.0 | 0.00 | 0.03 | 0.03 | 73 | 993.8 |
| 20260505090903 | 40 | 267 | 8.0 | 18.0 | 0.00 | 0.03 | 0.03 | 73 | 993.8 |
| 20260505090004 | 40 | 278 | 11.0 | 20.0 | 0.00 | 0.03 | 0.03 | 75 | 993.5 |
| 20260505085424 | 39 | 281 | 10.0 | 21.0 | 0.00 | 0.03 | 0.03 | 76 | 993.7 |
| 20260505084525 | 40 | 275 | 11.0 | 19.0 | 0.00 | 0.03 | 0.03 | 74 | 993.6 |
| 20260505083604 | 40 | 274 | 10.0 | 19.0 | 0.00 | 0.03 | 0.03 | 73 | 993.3 |
| 20260505082703 | 40 | 276 | 9.0 | 22.0 | 0.00 | 0.03 | 0.03 | 73 | 993.3 |
| 20260505081803 | 41 | 263 | 5.0 | 12.0 | 0.00 | 0.03 | 0.03 | 74 | 993.2 |
| 20260505080903 | 41 | 268 | 6.0 | 15.0 | 0.00 | 0.03 | 0.03 | 73 | 993.1 |
| 20260505080025 | 40 | 263 | 7.0 | 19.0 | 0.00 | 0.03 | 0.03 | 74 | 993.0 |
| 20260505075403 | 41 | 209 | 5.0 | 15.0 | 0.00 | 0.03 | 0.03 | 74 | 993.0 |
| 20260505074504 | 41 | 218 | 5.0 | 16.0 | 0.00 | 0.03 | 0.03 | 74 | 993.0 |
| 20260505073624 | 40 | 254 | 4.0 | 12.0 | 0.00 | 0.03 | 0.03 | 77 | 992.9 |
| 20260505072703 | 40 | 253 | 5.0 | 17.0 | 0.00 | 0.03 | 0.03 | 77 | 992.9 |
| 20260505071803 | 41 | 248 | 3.0 | 14.0 | 0.00 | 0.03 | 0.03 | 78 | 993.0 |
| 20260505070903 | 40 | 228 | 3.0 | 10.0 | 0.00 | 0.03 | 0.03 | 78 | 992.8 |
| 20260505070004 | 40 | 254 | 3.0 | 10.0 | 0.00 | 0.03 | 0.03 | 79 | 993.0 |
| 20260505065404 | 40 | 253 | 4.0 | 11.0 | 0.00 | 0.03 | 0.03 | 80 | 992.8 |
| 20260505064504 | 40 | 254 | 4.0 | 11.0 | 0.00 | 0.03 | 0.03 | 79 | 992.8 |
| 20260505063603 | 40 | 235 | 3.0 | 10.0 | 0.00 | 0.03 | 0.03 | 82 | 992.6 |
| 20260505062703 | 39 | 207 | 3.0 | 14.0 | 0.00 | 0.03 | 0.03 | 82 | 992.6 |
| 20260505061803 | 38 | 189 | 3.0 | 10.0 | 0.00 | 0.03 | 0.03 | 83 | 992.7 |
| 20260505060903 | 38 | 216 | 3.0 | 10.0 | 0.00 | 0.03 | 0.03 | 83 | 992.6 |
| 20260505060024 | 38 | 204 | 3.0 | 11.0 | 0.00 | 0.03 | 0.03 | 84 | 992.6 |
| 20260505055403 | 38 | 229 | 3.0 | 9.0 | 0.00 | 0.03 | 0.03 | 86 | 992.7 |
| 20260505054504 | 37 | 242 | 4.0 | 10.0 | 0.00 | 0.03 | 0.03 | 86 | 992.7 |
| 20260505053603 | 37 | 238 | 3.0 | 11.0 | 0.00 | 0.03 | 0.03 | 86 | 992.8 |
| 20260505052703 | 37 | 232 | 3.0 | 11.0 | 0.00 | 0.03 | 0.03 | 87 | 992.7 |
| 20260505051803 | 37 | 237 | 3.0 | 13.0 | 0.00 | 0.03 | 0.03 | 87 | 992.7 |
| 20260505050903 | 37 | 217 | 3.0 | 9.0 | 0.00 | 0.03 | 0.03 | 87 | 992.8 |
| 20260505040924 | 36 | 238 | 4.0 | 13.0 | 0.00 | 0.03 | 0.03 | 88 | 992.8 |
| 20260505040004 | 36 | 248 | 4.0 | 14.0 | 0.00 | 0.03 | 0.03 | 89 | 992.8 |
| 20260505035403 | 36 | 254 | 4.0 | 14.0 | 0.00 | 0.03 | 0.03 | 89 | 992.9 |
| 20260505034503 | 36 | 239 | 4.0 | 11.0 | 0.00 | 0.03 | 0.03 | 89 | 992.8 |
| 20260505033603 | 36 | 215 | 4.0 | 11.0 | 0.00 | 0.03 | 0.03 | 89 | 992.8 |
| 20260505032703 | 36 | 221 | 2.0 | 11.0 | 0.00 | 0.03 | 0.03 | 90 | 992.7 |
| 20260505031803 | 36 | 234 | 2.0 | 11.0 | 0.00 | 0.03 | 0.03 | 90 | 992.6 |
| 20260505030924 | 36 | 240 | 2.0 | 8.0 | 0.00 | 0.03 | 0.03 | 90 | 992.5 |
| 20260505030003 | 36 | 235 | 3.0 | 10.0 | 0.00 | 0.03 | 0.03 | 90 | 992.6 |
| 20260505025403 | 36 | 229 | 3.0 | 10.0 | 0.00 | 0.03 | 0.03 | 90 | 992.7 |
| 20260505024503 | 36 | 234 | 3.0 | 12.0 | 0.00 | 0.03 | 0.03 | 90 | 992.6 |
| 20260505023624 | 36 | 226 | 3.0 | 10.0 | 0.00 | 0.03 | 0.03 | 91 | 992.6 |
| 20260505022703 | 36 | 231 | 3.0 | 16.0 | 0.00 | 0.03 | 0.03 | 91 | 992.6 |
| 20260505021824 | 36 | 221 | 3.0 | 14.0 | 0.00 | 0.03 | 0.03 | 91 | 992.6 |
| 20260505020903 | 36 | 216 | 2.0 | 11.0 | 0.00 | 0.03 | 0.03 | 91 | 992.5 |
| 20260505020003 | 36 | 228 | 3.0 | 12.0 | 0.00 | 0.03 | 0.03 | 91 | 992.7 |
| 20260505015403 | 36 | 218 | 4.0 | 12.0 | 0.00 | 0.03 | 0.03 | 91 | 992.7 |
| 20260505014524 | 36 | 209 | 3.0 | 13.0 | 0.00 | 0.03 | 0.03 | 91 | 992.7 |
| 20260505013603 | 36 | 194 | 2.0 | 9.0 | 0.00 | 0.03 | 0.03 | 91 | 992.6 |
| 20260505012703 | 36 | 215 | 2.0 | 9.0 | 0.00 | 0.03 | 0.03 | 91 | 992.6 |
| 20260505011803 | 36 | 222 | 4.0 | 17.0 | 0.00 | 0.03 | 0.03 | 91 | 992.7 |
| 20260505010903 | 36 | 208 | 3.0 | 10.0 | 0.00 | 0.03 | 0.03 | 91 | 992.8 |
| 20260505010004 | 36 | 229 | 3.0 | 12.0 | 0.01 | 0.03 | 0.03 | 91 | 992.8 |
| 20260505005403 | 36 | 246 | 3.0 | 12.0 | 0.01 | 0.03 | 0.03 | 91 | 992.7 |
| 20260505004503 | 36 | 258 | 3.0 | 13.0 | 0.01 | 0.03 | 0.03 | 91 | 992.5 |
| 20260505003603 | 36 | 274 | 3.0 | 10.0 | 0.01 | 0.03 | 0.03 | 91 | 992.5 |
| 20260505002724 | 36 | 266 | 4.0 | 12.0 | 0.01 | 0.03 | 0.03 | 91 | 992.5 |
| 20260505001803 | 36 | 262 | 4.0 | 16.0 | 0.01 | 0.03 | 0.03 | 91 | 992.6 |
| 20260505000903 | 36 | 262 | 4.0 | 15.0 | 0.01 | 0.03 | 0.03 | 90 | 992.6 |
| 20260505000004 | 36 | 246 | 5.0 | 18.0 | 0.00 | 0.02 | 0.02 | 90 | 992.3 |
| 20260504235424 | 36 | 240 | 4.0 | 18.0 | 0.01 | 0.02 | 0.02 | 90 | 992.4 |
| 20260504234503 | 36 | 213 | 3.0 | 9.0 | 0.01 | 0.02 | 0.02 | 91 | 992.3 |
| 20260504233603 | 35 | 213 | 2.0 | 10.0 | 0.01 | 0.02 | 0.02 | 91 | 992.4 |
| 20260504232703 | 35 | 213 | 2.0 | 7.0 | 0.01 | 0.02 | 0.02 | 90 | 992.5 |
| 20260504231803 | 35 | 206 | 1.0 | 4.0 | 0.01 | 0.02 | 0.02 | 90 | 992.5 |
| 20260504230903 | 35 | 216 | 0.0 | 1.0 | 0.02 | 0.02 | 0.02 | 89 | 992.6 |
| 20260504230003 | 34 | 222 | 1.0 | 4.0 | 0.02 | 0.02 | 0.02 | 89 | 992.7 |
| 20260504225403 | 34 | 237 | 1.0 | 4.0 | 0.01 | 0.01 | 0.01 | 88 | 992.7 |
| 20260504224503 | 34 | 252 | 0.0 | 2.0 | 0.01 | 0.01 | 0.01 | 87 | 992.9 |
| 20260504223603 | 34 | 252 | 0.0 | 2.0 | 0.01 | 0.01 | 0.01 | 87 | 992.9 |
| 20260504222703 | 35 | 253 | 0.0 | 2.0 | 0.01 | 0.01 | 0.01 | 86 | 993.0 |
| 20260504221803 | 35 | 235 | 1.0 | 4.0 | 0.01 | 0.01 | 0.01 | 84 | 993.1 |
| 20260504220903 | 36 | 263 | 2.0 | 6.0 | 0.00 | 0.00 | 0.00 | 80 | 993.2 |
| 20260504220003 | 38 | 269 | 2.0 | 8.0 | 0.00 | 0.00 | 0.00 | 75 | 993.3 |
| 20260504215403 | 38 | 213 | 0.0 | 2.0 | 0.00 | 0.00 | 0.00 | 72 | 993.2 |
| 20260504214503 | 38 | 233 | 1.0 | 3.0 | 0.00 | 0.00 | 0.00 | 71 | 993.0 |
| 20260504213624 | 39 | 269 | 1.0 | 6.0 | 0.00 | 0.00 | 0.00 | 69 | 992.9 |
| 20260504212703 | 39 | 253 | 2.0 | 6.0 | 0.00 | 0.00 | 0.00 | 68 | 993.0 |
| 20260504211803 | 39 | 280 | 6.0 | 10.0 | 0.00 | 0.00 | 0.00 | 66 | 992.9 |
| 20260504210903 | 39 | 283 | 6.0 | 12.0 | 0.00 | 0.00 | 0.00 | 64 | 993.0 |
| 20260504210004 | 39 | 301 | 8.0 | 16.0 | 0.00 | 0.00 | 0.00 | 63 | 992.9 |
| 20260504205403 | 39 | 308 | 9.0 | 16.0 | 0.00 | 0.00 | 0.00 | 63 | 992.9 |
| 20260504204503 | 40 | 301 | 9.0 | 15.0 | 0.00 | 0.00 | 0.00 | 63 | 993.1 |
| 20260504203603 | 40 | 301 | 8.0 | 16.0 | 0.00 | 0.00 | 0.00 | 62 | 993.2 |
| 20260504202703 | 40 | 307 | 6.0 | 13.0 | 0.00 | 0.00 | 0.00 | 63 | 993.1 |
| 20260504201803 | 40 | 283 | 5.0 | 9.0 | 0.00 | 0.00 | 0.00 | 63 | 993.3 |
| 20260504200903 | 40 | 277 | 7.0 | 15.0 | 0.00 | 0.00 | 0.00 | 62 | 993.6 |
| 20260504200003 | 40 | 270 | 4.0 | 11.0 | 0.00 | 0.00 | 0.00 | 63 | 993.8 |
| 20260504195403 | 40 | 273 | 3.0 | 8.0 | 0.00 | 0.00 | 0.00 | 64 | 993.8 |
| 20260504194503 | 41 | 277 | 4.0 | 8.0 | 0.00 | 0.00 | 0.00 | 63 | 993.1 |
| 20260504193603 | 41 | 286 | 4.0 | 10.0 | 0.00 | 0.00 | 0.00 | 63 | 993.3 |
| 20260504192703 | 42 | 291 | 4.0 | 10.0 | 0.00 | 0.00 | 0.00 | 61 | 993.2 |
| 20260504191803 | 43 | 281 | 5.0 | 11.0 | 0.00 | 0.00 | 0.00 | 59 | 993.5 |
| 20260504190903 | 44 | 286 | 6.0 | 12.0 | 0.00 | 0.00 | 0.00 | 58 | 993.6 |
| 20260504190003 | 45 | 317 | 6.0 | 11.0 | 0.00 | 0.00 | 0.00 | 57 | 993.4 |
| 20260504185403 | 46 | 313 | 6.0 | 12.0 | 0.00 | 0.00 | 0.00 | 57 | 993.5 |
| 20260504184503 | 46 | 316 | 6.0 | 12.0 | 0.00 | 0.00 | 0.00 | 57 | 993.6 |